sat.trackr.live / text

‹ back to catalog

STARLINK-36527

NORAD 67631 · 2026-020Q

PAYLOAD ACTIVE UNKNOWN

§ Identity

Operator
Country
US
Launch date
2026-01-30
Launch site
AFETR
Launch vehicle
Mass (kg)
RCS (m²)

Purposes: comms

External: N2YO · Heavens-Above · Gunter

§ Orbital elements

Epoch: 2026-09-19T22:04:01.067520Z

Period
94.27 min
Inclination
43.0006°
Eccentricity
0.0001020
Mean motion
15.27579685 rev/d
Perigee alt
482.4 km
Apogee alt
483.7 km
Semi-major
6,861.2 km
B*
4.4483e-4
RAAN
123.2986°
Arg perigee
261.8321°
Mean anomaly
98.2415°
Rev number
3,581

§ Raw data

STARLINK-365271 67631U 26020Q   26262.91945680  .00011998  00000+0  44483-3 0  99962 67631  43.0006 123.2986 0001020 261.8321  98.2415 15.27579685 35816

JSON: /api/v1/satellites/67631 · /tle

For live sub-satellite position, see the globe view (requires WebGL).

§ Visibility from observer

Set your observer location to see the next 7 days of passes ≥ 10°. The values pass through the URL so the page stays shareable.

No JS? Fill the form by hand. The geolocation button needs JavaScript.